Location: Newark
(35.2672°N, 80.7344°W)
Time: 11:16:57
(UTC+00:00)

Vanguard 2 Rocket - Pass Details

Date: 21 January 2020
Orbit: 553 x 3327 km, 32.9° (Epoch: 26 February)

Event Time Altitude Azimuth Distance (km) Brightness Sun altitude
Rises 17:49:22 0° 276° (W) 5,013 10.7 34.7°
Reaches altitude 10° 17:52:40 10° 267° (W) 4,378 10.6 34.7°
Maximum altitude 18:03:33 33° 210° (SSW) 3,805 11.9 34.4°
Drops below altitude 10° 18:18:58 10° 156° (SSE) 6,166 12.0 33.8°
Sets 18:24:54 0° 147° (SSE) 7,296 12.0 33.5°
